Weather History for Wahoo, NE

Change the Weather History Date:

Saturday, October 6, 2012

  Actual Average Record
Temperature  
Mean Temperature 36 °F -  
Max Temperature 48 °F 69 °F 93 °F (1963)
Min Temperature 25 °F 42 °F 25 °F (2012)
Degree Days  
Heating Degree Days 28    
Moisture  
Dew Point 23 °F    
Average Humidity 54    
Maximum Humidity 80    
Minimum Humidity 37    
Precipitation  
Precipitation 0.00 in - - ()
Sea Level Pressure  
Sea Level Pressure 30.33 in    
Wind  
Wind Speed 10 mph (NNW)    
Max Wind Speed 18 mph    
Max Gust Speed 25 mph    
Visibility 10 miles    
Events      
Averages and records for this station are not official NWS values.
T = Trace of Precipitation, MM = Missing Value Source: NWS Daily Summary

Daily Weather History Graph

Daily Weather History Graph

Search for Another Location

Airport:

Trip Planner

Search our weather history database for the weather conditions in past years. The results will help you decide how hot, cold, wet, or windy it might be!

Date:

Astronomy

Oct. 06, 2012 Rise Set
Actual Time 7:28 AM CDT 6:59 PM CDT
Civil Twilight 7:01 AM CDT 7:26 PM CDT
Nautical Twilight 6:29 AM CDT 7:58 PM CDT
Astronomical Twilight 5:57 AM CDT 8:30 PM CDT
Moon 11:13 PM CDT (10/6) 1:26 PM CDT (10/6)
Length of Visible Light 12h 25m
Length of Day
11h 30m
Waning Gibbous, 65% of the Moon is Illuminated
Oct 6
Waning Gibbous
Oct 8
Last Quarter
Oct 15
New
Oct 21
First Quarter
Oct 29
Full

Hourly Weather History & Observations

Time (CDT) Temp. Windchill Dew Point Humidity Pressure Visibility Wind Dir Wind Speed Gust Speed Precip Events Conditions
12:15 AM 38.7 °F 32.9 °F 25.0 °F 58% 30.32 in 10.0 mi NW 8.1 mph - N/A   Overcast
12:35 AM 39.7 °F 33.7 °F 24.8 °F 55% 30.31 in 10.0 mi NW 9.2 mph - N/A   Overcast
12:55 AM 40.1 °F 34.7 °F 24.1 °F 53% 30.31 in 10.0 mi NNW 8.1 mph - N/A   Overcast
1:15 AM 39.2 °F 34.2 °F 24.8 °F 56% 30.31 in 10.0 mi NNW 6.9 mph - N/A   Overcast
1:35 AM 39.6 °F 33.5 °F 24.8 °F 56% 30.31 in 10.0 mi NNW 9.2 mph - N/A   Overcast
1:55 AM 40.3 °F 32.6 °F 23.5 °F 51% 30.31 in 10.0 mi NNW 13.8 mph - N/A   Overcast
2:15 AM 39.6 °F 31.7 °F 23.0 °F 52% 30.32 in 10.0 mi North 13.8 mph - N/A   Overcast
2:35 AM 38.8 °F 31.6 °F 22.3 °F 51% 30.32 in 10.0 mi North 11.5 mph - N/A   Overcast
2:55 AM 37.8 °F 30.7 °F 21.6 °F 52% 30.33 in 10.0 mi North 10.4 mph - N/A   Overcast
3:15 AM 35.6 °F 27.5 °F 21.2 °F 56% 30.32 in 10.0 mi NNW 11.5 mph - N/A   Overcast
3:35 AM 34.7 °F 26.9 °F 21.0 °F 57% 30.31 in 10.0 mi NNW 10.4 mph - N/A   Scattered Clouds
3:55 AM 33.4 °F 27.3 °F 20.3 °F 59% 30.31 in 10.0 mi NNW 6.9 mph - N/A   Clear
4:15 AM 32.0 °F 24.8 °F 20.3 °F 62% 30.31 in 10.0 mi NNW 8.1 mph - N/A   Clear
4:35 AM 31.3 °F 22.7 °F 20.3 °F 64% 30.31 in 10.0 mi NNW 10.4 mph - N/A   Clear
4:55 AM 30.6 °F 22.4 °F 20.3 °F 66% 30.31 in 10.0 mi NNW 9.2 mph - N/A   Clear
5:15 AM 30.2 °F 20.8 °F 20.1 °F 66% 30.31 in 10.0 mi NNW 11.5 mph - N/A   Clear
5:35 AM 30.0 °F 20.0 °F 20.3 °F 67% 30.31 in 10.0 mi NNW 12.7 mph - N/A   Clear
5:55 AM 29.3 °F 20.8 °F 20.7 °F 70% 30.32 in 10.0 mi NNW 9.2 mph - N/A   Clear
6:15 AM 28.2 °F 19.5 °F 20.3 °F 72% 30.33 in 10.0 mi NNW 9.2 mph - N/A   Clear
6:35 AM 28.2 °F 23.1 °F 20.7 °F 73% 30.34 in 10.0 mi NNW 4.6 mph - N/A   Clear
6:55 AM 27.7 °F - 20.3 °F 74% 30.34 in 10.0 mi Calm Calm - N/A   Clear
7:15 AM 27.7 °F 23.8 °F 20.1 °F 73% 30.35 in 10.0 mi NNW 3.5 mph - N/A   Clear
7:35 AM 25.7 °F 20.1 °F 19.2 °F 76% 30.35 in 10.0 mi North 4.6 mph - N/A   Clear
7:55 AM 25.7 °F 19.0 °F 19.9 °F 79% 30.35 in 10.0 mi NNW 5.8 mph - N/A   Clear
8:15 AM 28.8 °F 25.0 °F 22.1 °F 76% 30.36 in 10.0 mi WNW 3.5 mph - N/A   Clear
8:35 AM 32.0 °F 26.4 °F 23.2 °F 70% 30.36 in 10.0 mi NNW 5.8 mph - N/A   Clear
9:15 AM 34.7 °F 27.5 °F 23.5 °F 64% 30.38 in 10.0 mi NNW 9.2 mph - N/A   Clear
9:35 AM 36.7 °F 28.9 °F 23.4 °F 59% 30.38 in 10.0 mi NNW 11.5 mph - N/A   Clear
9:55 AM 38.3 °F 29.3 °F 23.5 °F 55% 30.38 in 10.0 mi NNW 16.1 mph - N/A   Clear
10:15 AM 39.4 °F 30.7 °F 23.0 °F 52% 30.39 in 10.0 mi NNW 16.1 mph - N/A   Clear
10:35 AM 41.4 °F 32.7 °F 23.0 °F 48% 30.39 in 10.0 mi NNW 18.4 mph 25.3 mph N/A   Clear
10:55 AM 42.1 °F 35.7 °F 23.0 °F 47% 30.39 in 10.0 mi NNW 11.5 mph 16.1 mph N/A   Clear
11:15 AM 43.0 °F 36.4 °F 22.8 °F 45% 30.38 in 10.0 mi NNW 12.7 mph 19.6 mph N/A   Clear
11:35 AM 42.4 °F 35.7 °F 21.9 °F 44% 30.37 in 10.0 mi NNW 12.7 mph 19.6 mph N/A   Clear
11:55 AM 44.1 °F 37.1 °F 22.3 °F 42% 30.37 in 10.0 mi NNW 15.0 mph 20.7 mph N/A   Clear
12:15 PM 45.1 °F 39.1 °F 22.8 °F 41% 30.37 in 10.0 mi NW 12.7 mph 18.4 mph N/A   Clear
12:35 PM 45.5 °F 39.6 °F 22.6 °F 41% 30.37 in 10.0 mi North 12.7 mph 20.7 mph N/A   Clear
12:55 PM 46.2 °F 40.1 °F 22.5 °F 39% 30.36 in 10.0 mi NNW 13.8 mph 21.9 mph N/A   Scattered Clouds
1:15 PM 47.1 °F - 22.6 °F 38% 30.36 in 10.0 mi NW 11.5 mph 21.9 mph N/A   Clear
1:35 PM 46.4 °F 41.5 °F 22.3 °F 39% 30.35 in 10.0 mi NW 10.4 mph 19.6 mph N/A   Clear
1:55 PM 46.6 °F - 22.5 °F 39% 30.34 in 10.0 mi NNW 11.5 mph 21.9 mph N/A   Clear
2:15 PM 46.9 °F - 22.6 °F 38% 30.32 in 10.0 mi North 16.1 mph - N/A   Clear
2:35 PM 48.6 °F - 23.0 °F 37% 30.32 in 10.0 mi NW 11.5 mph 18.4 mph N/A   Scattered Clouds
2:55 PM 46.0 °F 39.9 °F 22.6 °F 40% 30.31 in 10.0 mi North 13.8 mph 20.7 mph N/A   Scattered Clouds
3:15 PM 46.2 °F 40.1 °F 22.5 °F 39% 30.31 in 10.0 mi NNW 13.8 mph - N/A   Clear
3:35 PM 46.4 °F 39.5 °F 22.8 °F 39% 30.31 in 10.0 mi NNW 17.3 mph 20.7 mph N/A   Clear
3:55 PM 46.4 °F 41.5 °F 22.8 °F 39% 30.30 in 10.0 mi North 10.4 mph 19.6 mph N/A   Clear
4:15 PM 46.4 °F 40.1 °F 22.8 °F 39% 30.30 in 10.0 mi North 15.0 mph - N/A   Clear
4:35 PM 45.9 °F 40.8 °F 23.0 °F 41% 30.30 in 10.0 mi NNW 10.4 mph - N/A   Clear
4:55 PM 45.9 °F 40.8 °F 23.0 °F 41% 30.30 in 10.0 mi NNW 10.4 mph - N/A   Clear
5:15 PM 45.7 °F 41.0 °F 23.0 °F 41% 30.30 in 10.0 mi NNW 9.2 mph 16.1 mph N/A   Clear
5:35 PM 46.0 °F 41.0 °F 23.0 °F 40% 30.30 in 10.0 mi NNW 10.4 mph - N/A   Clear
6:15 PM 45.1 °F 39.5 °F 23.4 °F 42% 30.30 in 10.0 mi NW 11.5 mph - N/A   Scattered Clouds
6:35 PM 44.6 °F 41.4 °F 23.2 °F 43% 30.30 in 10.0 mi NNW 5.8 mph - N/A   Mostly Cloudy
6:55 PM 43.7 °F 40.3 °F 23.9 °F 46% 30.30 in 10.0 mi NNW 5.8 mph - N/A   Overcast
7:15 PM 43.2 °F 39.0 °F 24.1 °F 47% 30.30 in 10.0 mi NNW 6.9 mph - N/A   Overcast
7:35 PM 40.8 °F 36.9 °F 23.9 °F 51% 30.31 in 10.0 mi NW 5.8 mph - N/A   Mostly Cloudy
7:55 PM 39.0 °F 34.8 °F 23.9 °F 55% 30.32 in 10.0 mi NNW 5.8 mph - N/A   Scattered Clouds
8:15 PM 37.9 °F 33.5 °F 23.7 °F 57% 30.32 in 10.0 mi NNW 5.8 mph - N/A   Clear
8:35 PM 36.7 °F 31.2 °F 23.7 °F 59% 30.32 in 10.0 mi NW 6.9 mph - N/A   Scattered Clouds
8:55 PM 37.4 °F 32.8 °F 23.7 °F 58% 30.32 in 10.0 mi NNW 5.8 mph - N/A   Scattered Clouds
9:15 PM 34.7 °F 29.6 °F 23.7 °F 64% 30.32 in 10.0 mi NNW 5.8 mph - N/A   Clear
9:35 PM 34.9 °F 30.8 °F 23.5 °F 63% 30.32 in 10.0 mi NNW 4.6 mph - N/A   Clear
11:15 PM 31.8 °F 27.3 °F 24.4 °F 74% 30.32 in 10.0 mi West 4.6 mph - N/A   Clear
11:35 PM 30.0 °F 24.1 °F 23.7 °F 77% 30.31 in 10.0 mi WSW 5.8 mph - N/A   Clear
11:55 PM 28.9 °F 23.9 °F 23.5 °F 80% 30.31 in 10.0 mi WSW 4.6 mph - N/A   Clear